Location: Alafon
(8.4500°N, 4.2333°E)
Time: 20:29:22
(UTC+00:00)

Vanguard 2 - Pass Details

Date: 03 August 2021
Orbit: 553 x 2937 km, 32.9° (Epoch: 27 September)

Event Time Altitude Azimuth Distance (km) Brightness Sun altitude
Rises 11:17:45 0° 295° (WNW) 4,446 11.4 78.2°
Reaches altitude 10° 11:20:18 10° 291° (WNW) 3,734 11.1 78.6°
Maximum altitude 11:30:31 62° 213° (SSW) 2,373 11.0 80.0°
Drops below altitude 10° 11:46:32 10° 136° (SE) 5,602 12.0 81.1°
Sets 11:51:23 0° 133° (SE) 6,744 12.3 81.1°
